| time (UTC) | temp F | wind direction | speed knots | gust knots | rain 1hr in | rain 24hr in | rain mn in | humidity % | barometer mb |
| 20260506051115 | 72 | 89 | 0.9 | 0.9 | 0.00 | 0.00 | 0.00 | 53 | 1010.9 |
| 20260506050613 | 72 | 83 | 0.0 | 0.9 | 0.00 | 0.00 | 0.00 | 54 | 1011.0 |
| 20260506050110 | 72 | 81 | 0.0 | 0.0 | 0.00 | 0.00 | 0.00 | 54 | 1010.9 |
| 20260506045104 | 72 | 5 | 3.5 | 5.2 | 0.00 | 0.00 | 0.00 | 52 | 1010.9 |
| 20260506044601 | 72 | 67 | 0.9 | 0.9 | 0.00 | 0.00 | 0.00 | 52 | 1010.8 |
| 20260506044058 | 72 | 96 | 0.0 | 0.0 | 0.00 | 0.00 | 0.00 | 51 | 1010.7 |
| 20260506043555 | 72 | 63 | 0.9 | 1.7 | 0.00 | 0.00 | 0.00 | 51 | 1010.8 |
| 20260506043053 | 72 | 74 | 0.0 | 0.0 | 0.00 | 0.00 | 0.00 | 51 | 1011.0 |
| 20260506042552 | 71 | 90 | 2.6 | 3.5 | 0.00 | 0.00 | 0.00 | 51 | 1010.9 |
| 20260506042050 | 72 | 82 | 0.0 | 0.9 | 0.00 | 0.00 | 0.00 | 51 | 1011.0 |
| 20260506041548 | 71 | 79 | 0.9 | 0.9 | 0.00 | 0.00 | 0.00 | 51 | 1010.7 |
| 20260506041044 | 71 | 71 | 0.0 | 0.0 | 0.00 | 0.00 | 0.00 | 51 | 1010.6 |
| 20260506040543 | 71 | 81 | 0.9 | 0.9 | 0.00 | 0.00 | 0.00 | 50 | 1010.7 |
| 20260506040038 | 71 | 91 | 0.9 | 0.9 | 0.00 | 0.00 | 0.00 | 50 | 1010.8 |
| 20260506035535 | 71 | 81 | 0.9 | 1.7 | 0.00 | 0.00 | 0.00 | 50 | 1010.9 |
| 20260506035032 | 71 | 87 | 0.9 | 0.9 | 0.00 | 0.00 | 0.00 | 50 | 1010.6 |
| 20260506034530 | 71 | 74 | 0.0 | 0.0 | 0.00 | 0.00 | 0.00 | 50 | 1010.9 |
| 20260506034026 | 71 | 85 | 0.0 | 0.9 | 0.00 | 0.00 | 0.00 | 49 | 1010.4 |
| 20260506033523 | 71 | 79 | 0.9 | 1.7 | 0.00 | 0.00 | 0.00 | 49 | 1010.7 |
| 20260506033021 | 71 | 80 | 0.0 | 0.0 | 0.00 | 0.00 | 0.00 | 49 | 1011.2 |
| 20260506032518 | 71 | 77 | 0.9 | 0.9 | 0.00 | 0.00 | 0.00 | 49 | 1011.3 |
| 20260506032014 | 71 | 83 | 0.0 | 0.0 | 0.00 | 0.00 | 0.00 | 47 | 1011.2 |
| 20260506031512 | 71 | 79 | 0.9 | 0.9 | 0.00 | 0.00 | 0.00 | 46 | 1011.4 |
| 20260506031009 | 71 | 85 | 1.7 | 1.7 | 0.00 | 0.00 | 0.00 | 46 | 1011.4 |
| 20260506030507 | 71 | 86 | 0.0 | 0.9 | 0.00 | 0.00 | 0.00 | 46 | 1011.4 |
| 20260506030004 | 71 | 96 | 0.9 | 1.7 | 0.00 | 0.00 | 0.00 | 45 | 1011.4 |
| 20260506025501 | 71 | 85 | 0.9 | 0.9 | 0.00 | 0.00 | 0.00 | 46 | 1011.2 |
| 20260506024957 | 71 | 85 | 0.9 | 0.9 | 0.00 | 0.00 | 0.00 | 46 | 1011.2 |
| 20260506024454 | 71 | 87 | 0.0 | 0.9 | 0.00 | 0.00 | 0.00 | 46 | 1011.2 |
| 20260506023950 | 71 | 84 | 0.0 | 0.0 | 0.00 | 0.00 | 0.00 | 46 | 1011.2 |
| 20260506023447 | 71 | 86 | 0.9 | 0.9 | 0.00 | 0.00 | 0.00 | 45 | 1011.1 |
| 20260506022943 | 71 | 87 | 0.9 | 0.9 | 0.00 | 0.00 | 0.00 | 45 | 1011.0 |
| 20260506022441 | 71 | 87 | 0.9 | 0.9 | 0.00 | 0.00 | 0.00 | 46 | 1010.7 |
| 20260506021939 | 71 | 90 | 0.0 | 0.9 | 0.00 | 0.00 | 0.00 | 45 | 1010.9 |
| 20260506021436 | 71 | 145 | 0.9 | 0.9 | 0.00 | 0.00 | 0.00 | 45 | 1010.8 |
| 20260506020933 | 71 | 82 | 0.0 | 0.9 | 0.00 | 0.00 | 0.00 | 46 | 1010.8 |
| 20260506020431 | 71 | 86 | 0.9 | 0.9 | 0.00 | 0.00 | 0.00 | 47 | 1010.8 |
| 20260506015928 | 71 | 76 | 0.0 | 0.0 | 0.00 | 0.00 | 0.00 | 46 | 1010.8 |
| 20260506015425 | 71 | 79 | 0.0 | 0.0 | 0.00 | 0.00 | 0.00 | 47 | 1010.8 |
| 20260506014922 | 70 | 75 | 0.0 | 0.9 | 0.00 | 0.00 | 0.00 | 46 | 1010.8 |
| 20260506014419 | 70 | 79 | 0.0 | 0.0 | 0.00 | 0.00 | 0.00 | 47 | 1010.7 |
| 20260506013915 | 70 | 92 | 0.0 | 0.0 | 0.00 | 0.00 | 0.00 | 46 | 1010.6 |
| 20260506013414 | 70 | 92 | 0.9 | 0.9 | 0.00 | 0.00 | 0.00 | 46 | 1010.6 |
| 20260506012909 | 71 | 89 | 0.9 | 1.7 | 0.00 | 0.00 | 0.00 | 47 | 1010.6 |
| 20260506012406 | 71 | 82 | 0.0 | 0.9 | 0.00 | 0.00 | 0.00 | 47 | 1010.5 |
| 20260506011903 | 71 | 106 | 0.9 | 0.9 | 0.00 | 0.00 | 0.00 | 47 | 1010.3 |
| 20260506011400 | 71 | 84 | 0.0 | 0.0 | 0.00 | 0.00 | 0.00 | 47 | 1010.5 |
| 20260506010857 | 71 | 85 | 0.9 | 0.9 | 0.00 | 0.00 | 0.00 | 47 | 1010.5 |
| 20260506010356 | 71 | 124 | 3.5 | 6.1 | 0.00 | 0.00 | 0.00 | 46 | 1010.4 |
| 20260506005852 | 71 | 139 | 2.6 | 2.6 | 0.00 | 0.00 | 0.00 | 46 | 1010.4 |
| 20260506005349 | 71 | 91 | 1.7 | 1.7 | 0.00 | 0.00 | 0.00 | 46 | 1010.3 |
| 20260506004845 | 70 | 83 | 0.0 | 0.9 | 0.00 | 0.00 | 0.00 | 48 | 1010.3 |
| 20260506004343 | 70 | 74 | 0.0 | 0.0 | 0.00 | 0.00 | 0.00 | 49 | 1010.1 |
| 20260506003839 | 70 | 91 | 0.9 | 0.9 | 0.00 | 0.00 | 0.00 | 49 | 1010.0 |
| 20260506003335 | 70 | 96 | 0.0 | 0.9 | 0.00 | 0.00 | 0.00 | 49 | 1010.4 |
| 20260506002831 | 70 | 92 | 0.0 | 0.0 | 0.00 | 0.00 | 0.00 | 50 | 1010.6 |
| 20260506002328 | 71 | 86 | 0.0 | 0.9 | 0.00 | 0.00 | 0.00 | 49 | 1010.4 |
| 20260506001824 | 71 | 88 | 0.9 | 0.9 | 0.00 | 0.00 | 0.00 | 48 | 1010.4 |
| 20260506001321 | 71 | 84 | 0.0 | 0.0 | 0.00 | 0.00 | 0.00 | 45 | 1010.8 |
| 20260506000818 | 72 | 85 | 0.0 | 0.9 | 0.00 | 0.00 | 0.00 | 45 | 1011.0 |
| 20260506000316 | 72 | 73 | 0.0 | 0.0 | 0.00 | 0.00 | 0.00 | 44 | 1010.9 |
| 20260505235812 | 72 | 76 | 0.0 | 0.0 | 0.00 | 0.00 | 0.00 | 43 | 1010.9 |
| 20260505235310 | 73 | 84 | 0.0 | 0.0 | 0.00 | 0.00 | 0.00 | 42 | 1010.9 |
| 20260505234807 | 73 | 82 | 0.0 | 0.0 | 0.00 | 0.00 | 0.00 | 41 | 1010.9 |
| 20260505234304 | 73 | 96 | 0.9 | 1.7 | 0.00 | 0.00 | 0.00 | 42 | 1010.8 |
| 20260505233801 | 73 | 74 | 0.0 | 0.0 | 0.00 | 0.00 | 0.00 | 42 | 1010.6 |
| 20260505233259 | 73 | 101 | 0.0 | 0.9 | 0.00 | 0.00 | 0.00 | 41 | 1010.7 |
| 20260505232756 | 74 | 90 | 1.7 | 3.5 | 0.00 | 0.00 | 0.00 | 40 | 1010.5 |
| 20260505232253 | 74 | 115 | 1.7 | 2.6 | 0.00 | 0.00 | 0.00 | 39 | 1010.5 |
| 20260505231749 | 74 | 89 | 1.7 | 1.7 | 0.00 | 0.00 | 0.00 | 39 | 1010.4 |
| 20260505231248 | 74 | 97 | 0.9 | 1.7 | 0.00 | 0.00 | 0.00 | 39 | 1010.5 |
| 20260505230746 | 74 | 96 | 1.7 | 1.7 | 0.00 | 0.00 | 0.00 | 42 | 1010.4 |
| 20260505230243 | 74 | 88 | 0.9 | 0.9 | 0.00 | 0.00 | 0.00 | 40 | 1010.4 |
| 20260505225739 | 75 | 96 | 0.9 | 1.7 | 0.00 | 0.00 | 0.00 | 39 | 1010.4 |
| 20260505225237 | 75 | 107 | 0.9 | 0.9 | 0.00 | 0.00 | 0.00 | 41 | 1010.6 |
| 20260505224732 | 75 | 80 | 0.9 | 0.9 | 0.00 | 0.00 | 0.00 | 41 | 1010.4 |
| 20260505224229 | 75 | 78 | 0.9 | 1.7 | 0.00 | 0.00 | 0.00 | 38 | 1010.4 |
| 20260505223727 | 76 | 79 | 0.0 | 0.9 | 0.00 | 0.00 | 0.00 | 39 | 1010.5 |
| 20260505223223 | 77 | 85 | 0.0 | 0.9 | 0.00 | 0.00 | 0.00 | 38 | 1010.5 |
| 20260505222719 | 77 | 74 | 1.7 | 1.7 | 0.00 | 0.00 | 0.00 | 38 | 1010.5 |
| 20260505222215 | 76 | 6 | 0.9 | 0.9 | 0.00 | 0.00 | 0.00 | 37 | 1010.5 |
| 20260505221713 | 75 | 36 | 0.9 | 0.9 | 0.00 | 0.00 | 0.00 | 37 | 1010.5 |
| 20260505221209 | 75 | 91 | 1.7 | 1.7 | 0.00 | 0.00 | 0.00 | 37 | 1010.4 |
| 20260505220706 | 75 | 94 | 1.7 | 2.6 | 0.00 | 0.00 | 0.00 | 38 | 1010.3 |
| 20260505220204 | 75 | 173 | 3.5 | 6.1 | 0.00 | 0.00 | 0.00 | 37 | 1010.9 |
| 20260505215701 | 76 | 169 | 4.3 | 6.1 | 0.00 | 0.00 | 0.00 | 39 | 1010.9 |
| 20260505215159 | 76 | 114 | 3.5 | 3.5 | 0.00 | 0.00 | 0.00 | 40 | 1010.6 |
| 20260505214657 | 76 | 31 | 1.7 | 2.6 | 0.00 | 0.00 | 0.00 | 40 | 1010.8 |
| 20260505214154 | 77 | 213 | 1.7 | 3.5 | 0.00 | 0.00 | 0.00 | 40 | 1010.7 |
| 20260505213651 | 77 | 75 | 0.9 | 2.6 | 0.00 | 0.00 | 0.00 | 41 | 1010.3 |
| 20260505213148 | 77 | 92 | 0.0 | 0.0 | 0.00 | 0.00 | 0.00 | 41 | 1010.7 |
| 20260505212644 | 77 | 67 | 1.7 | 2.6 | 0.00 | 0.00 | 0.00 | 39 | 1010.8 |
| 20260505212142 | 77 | 98 | 0.9 | 0.9 | 0.00 | 0.00 | 0.00 | 41 | 1010.5 |
| 20260505211638 | 77 | 134 | 0.0 | 0.9 | 0.00 | 0.00 | 0.00 | 43 | 1010.5 |
| 20260505211136 | 77 | 238 | 3.5 | 6.1 | 0.00 | 0.00 | 0.00 | 40 | 1010.7 |
| 20260505210632 | 77 | 86 | 2.6 | 5.2 | 0.00 | 0.00 | 0.00 | 42 | 1010.8 |
| 20260505210129 | 77 | 41 | 0.9 | 1.7 | 0.00 | 0.00 | 0.00 | 45 | 1010.9 |
| 20260505205627 | 77 | 218 | 3.5 | 5.2 | 0.00 | 0.00 | 0.00 | 43 | 1010.8 |
| 20260505205125 | 78 | 77 | 0.0 | 0.0 | 0.00 | 0.00 | 0.00 | 43 | 1011.0 |
| 20260505204621 | 78 | 129 | 1.7 | 1.7 | 0.00 | 0.00 | 0.00 | 42 | 1011.1 |
| 20260505204119 | 78 | 201 | 1.7 | 2.6 | 0.00 | 0.00 | 0.00 | 41 | 1011.0 |
| 20260505203615 | 78 | 78 | 0.9 | 1.7 | 0.00 | 0.00 | 0.00 | 44 | 1011.3 |
| 20260505203113 | 78 | 69 | 0.0 | 0.9 | 0.00 | 0.00 | 0.00 | 42 | 1011.0 |
| 20260505202608 | 78 | 75 | 0.9 | 1.7 | 0.00 | 0.00 | 0.00 | 42 | 1011.2 |
| 20260505202105 | 78 | 115 | 2.6 | 3.5 | 0.00 | 0.00 | 0.00 | 40 | 1011.1 |
| 20260505201601 | 80 | 260 | 1.7 | 2.6 | 0.00 | 0.00 | 0.00 | 40 | 1011.1 |
| 20260505201059 | 80 | 80 | 0.0 | 0.0 | 0.00 | 0.00 | 0.00 | 42 | 1011.2 |
| 20260505200557 | 80 | 173 | 1.7 | 3.5 | 0.00 | 0.00 | 0.00 | 39 | 1011.4 |
| 20260505200053 | 80 | 112 | 0.9 | 1.7 | 0.00 | 0.00 | 0.00 | 41 | 1011.5 |
| 20260505195549 | 80 | 89 | 1.7 | 2.6 | 0.00 | 0.00 | 0.00 | 41 | 1011.6 |
| 20260505195047 | 80 | 221 | 1.7 | 5.2 | 0.00 | 0.00 | 0.00 | 40 | 1011.5 |
| 20260505194544 | 79 | 78 | 0.9 | 0.9 | 0.00 | 0.00 | 0.00 | 42 | 1011.5 |
| 20260505194039 | 79 | 139 | 1.7 | 1.7 | 0.00 | 0.00 | 0.00 | 41 | 1011.5 |
| 20260505193537 | 79 | 128 | 3.5 | 6.1 | 0.00 | 0.00 | 0.00 | 39 | 1011.6 |
| 20260505193034 | 79 | 136 | 2.6 | 3.5 | 0.00 | 0.00 | 0.00 | 40 | 1011.8 |
| 20260505192532 | 78 | 69 | 1.7 | 2.6 | 0.00 | 0.00 | 0.00 | 39 | 1012.0 |
| 20260505192030 | 80 | 100 | 1.7 | 1.7 | 0.00 | 0.00 | 0.00 | 42 | 1011.8 |
| 20260505191528 | 79 | 69 | 0.9 | 0.9 | 0.00 | 0.00 | 0.00 | 40 | 1012.1 |
| 20260505191026 | 79 | 88 | 1.7 | 2.6 | 0.00 | 0.00 | 0.00 | 39 | 1011.8 |
| 20260505190520 | 79 | 43 | 2.6 | 3.5 | 0.00 | 0.00 | 0.00 | 41 | 1012.0 |
| 20260505190017 | 78 | 150 | 4.3 | 6.1 | 0.00 | 0.00 | 0.00 | 37 | 1012.0 |
| 20260505185513 | 79 | 78 | 1.7 | 3.5 | 0.00 | 0.00 | 0.00 | 38 | 1012.3 |
| 20260505185010 | 79 | 80 | 1.7 | 1.7 | 0.00 | 0.00 | 0.00 | 39 | 1012.3 |
| 20260505184507 | 78 | 34 | 0.9 | 1.7 | 0.00 | 0.00 | 0.00 | 39 | 1012.5 |
| 20260505184003 | 78 | 322 | 1.7 | 2.6 | 0.00 | 0.00 | 0.00 | 38 | 1012.7 |
| 20260505183500 | 78 | 310 | 1.7 | 3.5 | 0.00 | 0.00 | 0.00 | 37 | 1012.7 |
| 20260505182956 | 78 | 56 | 0.9 | 1.7 | 0.00 | 0.00 | 0.00 | 39 | 1012.7 |
| 20260505182454 | 78 | 154 | 3.5 | 5.2 | 0.00 | 0.00 | 0.00 | 41 | 1012.9 |
| 20260505181950 | 78 | 253 | 2.6 | 2.6 | 0.00 | 0.00 | 0.00 | 41 | 1013.1 |
| 20260505181447 | 78 | 75 | 1.7 | 2.6 | 0.00 | 0.00 | 0.00 | 37 | 1013.0 |
| 20260505180944 | 79 | 168 | 2.6 | 5.2 | 0.00 | 0.00 | 0.00 | 38 | 1012.9 |
| 20260505180440 | 78 | 153 | 2.6 | 3.5 | 0.00 | 0.00 | 0.00 | 37 | 1013.1 |
| 20260505175937 | 78 | 80 | 1.7 | 1.7 | 0.00 | 0.00 | 0.00 | 39 | 1013.2 |
| 20260505175433 | 77 | 209 | 2.6 | 2.6 | 0.00 | 0.00 | 0.00 | 37 | 1013.4 |
| 20260505174930 | 77 | 97 | 1.7 | 1.7 | 0.00 | 0.00 | 0.00 | 40 | 1013.3 |
| 20260505174427 | 77 | 189 | 5.2 | 7.8 | 0.00 | 0.00 | 0.00 | 37 | 1013.4 |
| 20260505173923 | 77 | 75 | 1.7 | 2.6 | 0.00 | 0.00 | 0.00 | 40 | 1013.5 |
| 20260505173420 | 77 | 79 | 0.0 | 0.9 | 0.00 | 0.00 | 0.00 | 40 | 1013.4 |
| 20260505172917 | 77 | 99 | 1.7 | 1.7 | 0.00 | 0.00 | 0.00 | 40 | 1013.6 |
| 20260505172415 | 76 | 40 | 1.7 | 2.6 | 0.00 | 0.00 | 0.00 | 40 | 1013.8 |
| 20260505171914 | 77 | 69 | 1.7 | 2.6 | 0.00 | 0.00 | 0.00 | 41 | 1014.0 |
| 20260505171412 | 77 | 62 | 2.6 | 3.5 | 0.00 | 0.00 | 0.00 | 39 | 1014.3 |
| 20260505170908 | 77 | 208 | 1.7 | 2.6 | 0.00 | 0.00 | 0.00 | 38 | 1014.4 |
| 20260505170405 | 77 | 166 | 1.7 | 3.5 | 0.00 | 0.00 | 0.00 | 38 | 1014.3 |
| 20260505165900 | 77 | 177 | 3.5 | 6.1 | 0.00 | 0.00 | 0.00 | 37 | 1014.3 |
| 20260505165356 | 77 | 43 | 1.7 | 2.6 | 0.00 | 0.00 | 0.00 | 40 | 1014.3 |
| 20260505164852 | 77 | 103 | 3.5 | 3.5 | 0.00 | 0.00 | 0.00 | 48 | 1014.4 |
| 20260505164349 | 76 | 90 | 1.7 | 1.7 | 0.00 | 0.00 | 0.00 | 44 | 1014.3 |
| 20260505163847 | 76 | 108 | 2.6 | 2.6 | 0.00 | 0.00 | 0.00 | 47 | 1014.1 |
| 20260505163345 | 76 | 88 | 0.9 | 0.9 | 0.00 | 0.00 | 0.00 | 47 | 1014.3 |
| 20260505162844 | 76 | 165 | 2.6 | 3.5 | 0.00 | 0.00 | 0.00 | 49 | 1014.5 |
| 20260505162339 | 76 | 40 | 1.7 | 1.7 | 0.00 | 0.00 | 0.00 | 47 | 1014.6 |
| 20260505161837 | 76 | 178 | 0.9 | 1.7 | 0.00 | 0.00 | 0.00 | 48 | 1014.4 |
| 20260505161334 | 76 | 55 | 1.7 | 1.7 | 0.00 | 0.00 | 0.00 | 47 | 1014.5 |
| 20260505160831 | 76 | 86 | 0.9 | 1.7 | 0.00 | 0.00 | 0.00 | 51 | 1014.5 |
| 20260505160329 | 75 | 111 | 0.9 | 1.7 | 0.00 | 0.00 | 0.00 | 53 | 1014.4 |
| 20260505153308 | 76 | 107 | 1.7 | 1.7 | 0.00 | 0.00 | 0.00 | 49 | 1014.4 |
| 20260505152805 | 75 | 86 | 0.0 | 0.0 | 0.00 | 0.00 | 0.00 | 52 | 1014.4 |
| 20260505152304 | 74 | 70 | 1.7 | 2.6 | 0.00 | 0.00 | 0.00 | 50 | 1014.4 |
| 20260505151801 | 73 | 79 | 0.0 | 0.0 | 0.00 | 0.00 | 0.00 | 54 | 1014.4 |
| 20260505151259 | 73 | 143 | 2.6 | 2.6 | 0.00 | 0.00 | 0.00 | 53 | 1014.5 |
| 20260505150756 | 73 | 351 | 1.7 | 1.7 | 0.00 | 0.00 | 0.00 | 51 | 1014.5 |
| 20260505150253 | 73 | 85 | 0.9 | 1.7 | 0.00 | 0.00 | 0.00 | 51 | 1014.5 |
| 20260505140223 | 69 | 92 | 0.9 | 1.7 | 0.00 | 0.00 | 0.00 | 56 | 1014.4 |
| 20260505130147 | 64 | 71 | 0.9 | 0.9 | 0.00 | 0.00 | 0.00 | 65 | 1014.5 |
| 20260505124637 | 64 | 91 | 0.0 | 0.0 | 0.00 | 0.00 | 0.00 | 66 | 1014.1 |
| 20260505124133 | 63 | 91 | 0.0 | 0.0 | 0.00 | 0.00 | 0.00 | 68 | 1014.1 |
| 20260505123629 | 60 | 90 | 0.0 | 0.0 | 0.00 | 0.00 | 0.00 | 69 | 1014.3 |
| 20260505123126 | 59 | 90 | 0.0 | 0.0 | 0.00 | 0.00 | 0.00 | 72 | 1014.3 |
| 20260505122623 | 59 | 90 | 0.0 | 0.0 | 0.00 | 0.00 | 0.00 | 72 | 1014.3 |
| 20260505122120 | 59 | 87 | 0.9 | 0.9 | 0.00 | 0.00 | 0.00 | 75 | 1014.1 |
| 20260505121616 | 59 | 86 | 0.0 | 0.0 | 0.00 | 0.00 | 0.00 | 74 | 1014.3 |
| 20260505121113 | 56 | 86 | 0.0 | 0.0 | 0.00 | 0.00 | 0.00 | 78 | 1013.9 |
| 20260505120609 | 56 | 87 | 0.9 | 0.9 | 0.00 | 0.00 | 0.00 | 81 | 1014.0 |
| 20260505120105 | 55 | 81 | 0.0 | 0.0 | 0.00 | 0.00 | 0.00 | 82 | 1014.0 |
| 20260505115600 | 55 | 68 | 0.0 | 0.0 | 0.00 | 0.00 | 0.00 | 78 | 1013.9 |
| 20260505115057 | 53 | 68 | 0.0 | 0.0 | 0.00 | 0.00 | 0.00 | 83 | 1013.9 |
| 20260505114555 | 52 | 68 | 0.0 | 0.0 | 0.00 | 0.00 | 0.00 | 86 | 1013.6 |
| 20260505114050 | 50 | 70 | 0.0 | 0.0 | 0.00 | 0.00 | 0.00 | 91 | 1013.7 |
| 20260505113547 | 49 | 73 | 0.0 | 0.0 | 0.00 | 0.00 | 0.00 | 95 | 1013.7 |
| 20260505113044 | 48 | 68 | 0.0 | 0.0 | 0.00 | 0.00 | 0.00 | 95 | 1013.4 |
| 20260505112540 | 48 | 62 | 0.0 | 0.0 | 0.00 | 0.00 | 0.00 | 95 | 1013.1 |
| 20260505112039 | 47 | 62 | 0.0 | 0.0 | 0.00 | 0.00 | 0.00 | 95 | 1013.0 |
| 20260505111538 | 47 | 62 | 0.0 | 0.0 | 0.00 | 0.00 | 0.00 | 95 | 1012.9 |
| 20260505111034 | 46 | 62 | 0.0 | 0.0 | 0.00 | 0.00 | 0.00 | 96 | 1013.2 |
| 20260505110531 | 46 | 62 | 0.0 | 0.0 | 0.00 | 0.00 | 0.00 | 95 | 1012.9 |
| 20260505102003 | 46 | 62 | 0.0 | 0.0 | 0.00 | 0.00 | 0.00 | 95 | 1012.9 |
| 20260505101501 | 46 | 62 | 0.0 | 0.0 | 0.00 | 0.00 | 0.00 | 95 | 1013.1 |
| 20260505100957 | 46 | 62 | 0.0 | 0.0 | 0.00 | 0.00 | 0.00 | 95 | 1013.1 |
| 20260505100455 | 46 | 62 | 0.0 | 0.0 | 0.00 | 0.00 | 0.00 | 95 | 1013.0 |
| 20260505095951 | 46 | 62 | 0.0 | 0.0 | 0.00 | 0.00 | 0.00 | 95 | 1013.1 |
| 20260505095448 | 46 | 62 | 0.0 | 0.0 | 0.00 | 0.00 | 0.00 | 94 | 1013.1 |
| 20260505094944 | 47 | 62 | 0.0 | 0.0 | 0.00 | 0.00 | 0.00 | 94 | 1013.1 |
| 20260505094441 | 47 | 62 | 0.0 | 0.0 | 0.00 | 0.00 | 0.00 | 95 | 1012.8 |
| 20260505093937 | 47 | 62 | 0.0 | 0.0 | 0.00 | 0.00 | 0.00 | 95 | 1012.9 |
| 20260505093434 | 47 | 62 | 0.0 | 0.0 | 0.00 | 0.00 | 0.00 | 95 | 1012.7 |
| 20260505092931 | 47 | 62 | 0.0 | 0.0 | 0.00 | 0.00 | 0.00 | 95 | 1012.8 |
| 20260505092429 | 47 | 62 | 0.0 | 0.0 | 0.00 | 0.00 | 0.00 | 95 | 1013.0 |
| 20260505091926 | 47 | 62 | 0.0 | 0.0 | 0.00 | 0.00 | 0.00 | 94 | 1013.0 |
| 20260505091423 | 47 | 62 | 0.0 | 0.0 | 0.00 | 0.00 | 0.00 | 94 | 1012.8 |
| 20260505090921 | 47 | 62 | 0.0 | 0.0 | 0.00 | 0.00 | 0.00 | 94 | 1012.9 |
| 20260505090419 | 47 | 62 | 0.0 | 0.0 | 0.00 | 0.00 | 0.00 | 94 | 1012.9 |
| 20260505085916 | 47 | 62 | 0.0 | 0.0 | 0.00 | 0.00 | 0.00 | 93 | 1012.8 |
| 20260505085414 | 48 | 62 | 0.0 | 0.0 | 0.00 | 0.00 | 0.00 | 93 | 1013.1 |
| 20260505084912 | 48 | 62 | 0.0 | 0.0 | 0.00 | 0.00 | 0.00 | 93 | 1013.0 |
| 20260505084410 | 48 | 62 | 0.0 | 0.0 | 0.00 | 0.00 | 0.00 | 93 | 1013.1 |
| 20260505083908 | 48 | 62 | 0.0 | 0.0 | 0.00 | 0.00 | 0.00 | 93 | 1012.9 |
| 20260505083405 | 48 | 62 | 0.0 | 0.0 | 0.00 | 0.00 | 0.00 | 93 | 1013.1 |
| 20260505082901 | 48 | 62 | 0.0 | 0.0 | 0.00 | 0.00 | 0.00 | 92 | 1012.8 |
| 20260505082357 | 48 | 62 | 0.0 | 0.0 | 0.00 | 0.00 | 0.00 | 92 | 1012.7 |
| 20260505081854 | 48 | 62 | 0.0 | 0.0 | 0.00 | 0.00 | 0.00 | 92 | 1012.9 |
| 20260505081350 | 48 | 62 | 0.0 | 0.0 | 0.00 | 0.00 | 0.00 | 92 | 1012.9 |
| 20260505080847 | 48 | 62 | 0.0 | 0.0 | 0.00 | 0.00 | 0.00 | 91 | 1012.9 |
| 20260505080343 | 49 | 62 | 0.0 | 0.0 | 0.00 | 0.00 | 0.00 | 91 | 1012.8 |
| 20260505075839 | 49 | 62 | 0.0 | 0.0 | 0.00 | 0.00 | 0.00 | 91 | 1012.7 |
| 20260505075336 | 49 | 62 | 0.0 | 0.0 | 0.00 | 0.00 | 0.00 | 90 | 1012.8 |
| 20260505074833 | 49 | 62 | 0.0 | 0.0 | 0.00 | 0.00 | 0.00 | 90 | 1012.8 |
| 20260505074330 | 50 | 62 | 0.0 | 0.0 | 0.00 | 0.00 | 0.00 | 89 | 1012.8 |
| 20260505073828 | 50 | 62 | 0.0 | 0.0 | 0.00 | 0.00 | 0.00 | 88 | 1012.6 |
| 20260505073326 | 51 | 62 | 0.0 | 0.0 | 0.00 | 0.00 | 0.00 | 87 | 1012.7 |
| 20260505072822 | 51 | 62 | 0.0 | 0.0 | 0.00 | 0.00 | 0.00 | 86 | 1012.7 |
| 20260505072319 | 52 | 62 | 0.0 | 0.0 | 0.00 | 0.00 | 0.00 | 85 | 1012.8 |
| 20260505071814 | 52 | 62 | 0.0 | 0.0 | 0.00 | 0.00 | 0.00 | 86 | 1012.9 |
| 20260505071311 | 51 | 62 | 0.0 | 0.0 | 0.00 | 0.00 | 0.00 | 87 | 1012.7 |
| 20260505070809 | 51 | 62 | 0.0 | 0.0 | 0.00 | 0.00 | 0.00 | 87 | 1013.0 |
| 20260505070305 | 51 | 62 | 0.0 | 0.0 | 0.00 | 0.00 | 0.00 | 86 | 1012.8 |
| 20260505065800 | 52 | 62 | 0.0 | 0.0 | 0.00 | 0.00 | 0.00 | 85 | 1012.9 |
| 20260505065258 | 52 | 62 | 0.0 | 0.0 | 0.00 | 0.00 | 0.00 | 84 | 1013.0 |
| 20260505064755 | 52 | 62 | 0.0 | 0.0 | 0.00 | 0.00 | 0.00 | 84 | 1012.9 |
| 20260505064252 | 52 | 62 | 0.0 | 0.0 | 0.00 | 0.00 | 0.00 | 85 | 1012.9 |
| 20260505063750 | 53 | 62 | 0.0 | 0.0 | 0.00 | 0.00 | 0.00 | 83 | 1013.0 |
| 20260505063246 | 53 | 62 | 0.0 | 0.0 | 0.00 | 0.00 | 0.00 | 83 | 1013.0 |
| 20260505062742 | 53 | 62 | 0.0 | 0.0 | 0.00 | 0.00 | 0.00 | 83 | 1013.1 |
| 20260505062240 | 53 | 62 | 0.0 | 0.0 | 0.00 | 0.00 | 0.00 | 84 | 1013.0 |
| 20260505061737 | 53 | 62 | 0.0 | 0.0 | 0.00 | 0.00 | 0.00 | 84 | 1013.0 |
| 20260505061235 | 53 | 62 | 0.0 | 0.0 | 0.00 | 0.00 | 0.00 | 83 | 1012.9 |
| 20260505060732 | 53 | 63 | 0.0 | 0.0 | 0.00 | 0.00 | 0.00 | 85 | 1013.0 |
| 20260505060229 | 53 | 65 | 0.0 | 0.0 | 0.00 | 0.00 | 0.00 | 85 | 1013.0 |
| 20260505055724 | 53 | 64 | 0.9 | 0.9 | 0.00 | 0.00 | 0.00 | 85 | 1012.9 |